Weather in Mikhaylovskoye

Russia / Yaroslavl Oblast     57°48′08″N   40°11′41″E
temp.,
°C
wind,
m/s
gust,
m/s
humid.,
%
clouds,
%
prec.,
mm/h
press.,
hPa
HPBL,
m
3 march, wed
wed300:00−6nw5128925 0.0 1008345
03:00−8nw5119121 0.0 1010292
06:00−8wnw5129366 0.0 1010346
09:00−8wnw6129280 0.0 1011452
12:00−4wnw6109181 0.0 1010631
15:000w6109190 0.1 10081004
18:00−1w61292100 0.3 1005685
21:00−2w61392100 0.3 1004652
4 march, thu
thu400:00−2wsw7139598 0.3 1000668
03:00−1wsw6129299 0.5 997582
06:00−1w6159397 0.3 994825
09:00−4wnw8168475 0.3 995755
12:00−3wnw9148696 0.0 996850
15:00−3wnw7108698 0.1 998778
18:00−5wnw4995100 0.3 999308
21:00−8nw349499 0.5 100146
5 march, fri
fri500:00−12nnw229522 0.0 100221
03:00−14nw129655 0.0 100320
06:00−14wnw239674 0.0 100420
09:00−12wnw249549 0.0 1005120
12:00−7w238882 0.0 1006353
15:00−5wsw239091 0.1 1007392
18:00−7w239696 0.2 100851
21:00−12nw349090 0.3 101042
6 march, sat
sat600:00−14nw34959 0.0 101239
03:00−14nw349547 0.0 101356
06:00−18nw349565 0.0 101445
09:00−17nw359333 0.0 1015172
12:00−12w359043 0.0 1015390
15:00−9w478871 0.0 1014658
18:00−11w359598 0.1 1013113
21:00−14wsw449578 0.1 101278
7 march, sun
sun700:00−14ssw499346 0.0 1009163
03:00−11ssw7139170 0.0 1005430
06:00−8ssw81593100 0.6 999752
09:00−6ssw91593100 1.9 9931017
12:00−3sw91592100 1.8 9901136
15:00−6wnw61168100 2.6 990899
18:00−10w237759 0.0 99121
21:00−12sw449462 0.0 99263